Regional Weather Roundup
Issued by NWS Upton, NY

Current Version | Previous Version | Text Only | Print | Product List | Glossary Off
Versions: 1 2 3 4 5 6 7 8 9 10 11 12 13 14 15 16 17 18 19 20 21 22 23 24 25 26 27 28 29 30 31 32 33 34 35 36 37 38 39 40 41 42 43 44 45 46 47
000 ASUS41 KOKX 041004 RWROKX REGIONAL WEATHER ROUNDUP NATIONAL WEATHER SERVICE NEW YORK NY 600 AM EDT TUE AUG 04 2015 NOTE: "FAIR" INDICATES FEW OR NO CLOUDS BELOW 12,000 FEET WITH NO SIGNIFICANT WEATHER AND/OR OBSTRUCTIONS TO VISIBILITY. NYZ071-072-176-178-NJZ106-104-041100- NEW YORK CITY METRO AREA CITY SKY/WX TMP DP RH WIND PRES REMARKS CENTRAL PARK CLOUDY 69 66 90 SW3 29.87S LAGUARDIA APRT CLOUDY 72 65 78 S7 29.84R KENNEDY INTL MOCLDY 71 64 78 SW6 29.87R NEWARK/LIBERTY LGT RAIN 71 67 87 S3 29.85R BRNX BOT. GARD N/A 68 66 94 E2 29.84R TETERBORO CLOUDY 70 66 87 SW3 29.84R $$ NYZ177-179-078>081-041100- LONG ISLAND NEW YORK CITY SKY/WX TMP DP RH WIND PRES REMARKS FARMINGDALE MOCLDY 70 64 81 SW6 29.86R ISLIP CLOUDY 69 65 86 SE6 29.83F SHIRLEY CLOUDY 70 65 84 SE3 29.86F WESTHAMPTON MOCLDY 73 68 84 W8G22 29.89R MONTAUK POINT N/A 77 72 84 S9 29.88R $$ NYZ052-065-067-041100- HUDSON VALLEY CITY SKY/WX TMP DP RH WIND PRES REMARKS WHITE PLAINS CLOUDY 70 67 90 VRB3 29.84R NEWBURGH MOCLDY 66 66 100 NW7 29.86R MONTGOMERY LGT RAIN 66 65 96 MISG 29.85R POUGHKEEPSIE CLOUDY 69 66 90 NW5 29.84R ALBANY CLOUDY 67 64 90 CALM 29.83S FOG $$ NJZ001-105-106-008-010-013-015-019>022-104-041100- NEW JERSEY CITY SKY/WX TMP DP RH WIND PRES REMARKS NEWARK/LIBERTY LGT RAIN 71 67 87 S3 29.85R TETERBORO CLOUDY 70 66 87 SW3 29.84R CALDWELL LGT RAIN 69 65 86 VRB3 29.85R MORRISTOWN LGT RAIN 68 64 88 CALM 29.86R SOMERVILLE LGT RAIN 66 64 93 CALM 29.85R SUSSEX CLOUDY 67 64 90 SW5 29.86R ANDOVER N/A 65 65 100 VRB3 29.88R TRENTON LGT RAIN 68 64 87 SE5 29.86R MILLVILLE PTCLDY 77 74 90 SW3 29.89R ATLANTIC CITY PTCLDY 76 73 91 S6 29.89R WRIGHTSTOWN LGT RAIN 72 68 88 E2 29.85S FOG TOMS RIVER N/A 73 70 88 CALM 29.90R BELMAR MOCLDY 73 63 68 SW5 29.88R $$ PAZ047>061-062-071-041100- EASTERN PENNSYLVANIA CITY SKY/WX TMP DP RH WIND PRES REMARKS PHILADELPHIA CLOUDY 76 67 73 S6 29.88F ALLENTOWN CLOUDY 66 64 93 CALM 29.88R SCRANTON CLOUDY 70 65 84 SW3 29.88R $$ CTZ002-004>006-009-010-012-RIZ004-006-007-MAZ004-011-015-041100- SOUTHERN NEW ENGLAND IN CT CITY SKY/WX TMP DP RH WIND PRES REMARKS BRADLEY INTL LGT RAIN 72 68 87 W6 29.82S HARTFORD LGT RAIN 74 72 93 S10 29.81F DANBURY CLOUDY 67 32 27 CALM 29.85F WTRBRY/OXFORD CLOUDY 68 59 73 SE8G16 29.84F BRIDGEPORT CLOUDY 74 69 85 SE3 29.81F MERIDEN LGT RAIN 73 68 84 SE6 29.82F NEW HAVEN LGT RAIN 74 69 85 CALM 29.83F CHESTER RAIN 73 72 94 W9G20 29.86R GROTON CLOUDY 76 73 91 SW13G22 29.83S THUNDER WILLIMANTIC TSTM 74 72 93 S5 29.85R FOG IN RI CITY SKY/WX TMP DP RH WIND PRES REMARKS PROVIDENCE MOCLDY 75 72 90 S5 29.82F FOG BLOCK ISLAND N/A 73 73 100 SW14 29.86S WESTERLY CLOUDY 75 72 90 S13G20 29.83F FOG IN MA CITY SKY/WX TMP DP RH WIND PRES REMARKS BOSTON LGT RAIN 72 71 97 SW5 29.83R FOG WORCESTER LGT RAIN 69 67 93 SW8 29.86R FOG WESTFIELD LGT RAIN 68 65 90 CALM 29.84R PROVINCETOWN CLEAR 73 66 78 SW14 29.86R NANTUCKET CLOUDY 73 71 93 SW6 29.89R FOG $$ ANZ330-335-338-340-345-350-353-355-041100- COASTAL MARINE OBSERVATIONS STATION/POSITION TIME SKY/WX TEMP WIND PRES VSBY WAVE AIR SEA DIR/SP/G HT/PER (UTC) (F) (DEG/KT/KT) (MB) (MI) (FT/S) NY HARB ENTRANCE 0850 75 74 300/ 12/ 16 1011.1 5/ 8 4S FIRE IS NOT AVBL 20S FIRE ISLAND 0850 77 74 230/ 16/ 19 1010.6 7/ 8 GREAT SOUTH BAY NOT AVBL 23SW MTP 0950 76 74 230/ 16/ 19 1010.9 6/ 7 HUDSON CANYON NOT AVBL KINGS POINT 0900 69 71 150/ 4/ 5 1009.9 EXECUTION ROCKS 0900 70 260/ 4/ 6 N/A CENTRAL LI SOUND NOT AVBL EASTERN LI SOUND 0900 72 68 220/ 12/ 14 N/A ROBBINS REEF 0900 68 110/ 3/ 4 1009.4 $$ >>>>>>>>>>>>>>>>>>>>>>>>>>>> KEY <<<<<<<<<<<<<<<<<<<<<<<<<<< > < > SKY/WX - SKY CONDITION/PRESENT WEATHER < > TMP - TEMPERATURE IN FAHRENHEIT < > DP - DEWPOINT IN FAHRENHEIT < > RH - RELATIVE HUMIDITY IN PERCENT < > WIND - DIRECTION AND SPEED IN MPH < > PRES - MEAN SEA LEVEL PRESSURE IN INCHES OF HG < > WCI - WIND CHILL INDEX < > VSB - VISIBILITY IN MILES < > HX - HEAT INDEX < > TC - TEMPERATURE IN CELSIUS < > VRB - VARIABLE WIND DIRECTION < > < >>>>>>>>>>>>>>>>>>>>>>>>>>>> KEY <<<<<<<<<<<<<<<<<<<<<<<<<<<

USA.gov is the U.S. government's official web portal to all federal, state and local government web resources and services.